This is the latest recevied weather packets stored in our database for station/object DJ2DS-13. If no packets are shown the sender has not sent any weather packets the latest 10 day(s).
| Time | Temp. | Humidity | Pressure | Rain* | Wind** | Luminosity | Snow |
|---|---|---|---|---|---|---|---|
| 1777812395 | 22.22° C | 69% | 1007.6 hPa | 0 mm | - | 622 W/m² | - |
| 1777811794 | 21.67° C | 70% | 1007.8 hPa | 0 mm | - | 550 W/m² | - |
| 1777811493 | 21.67° C | 71% | 1007.8 hPa | 0 mm | - | 292 W/m² | - |
| 1777811193 | 21.67° C | 72% | 1007.8 hPa | 0 mm | - | 489 W/m² | - |
| 1777810893 | 21.67° C | 73% | 1007.9 hPa | 0 mm | - | 492 W/m² | - |
| 1777810593 | 21.67° C | 74% | 1007.9 hPa | 0 mm | - | 329 W/m² | - |
| 1777810293 | 21.67° C | 73% | 1008.1 hPa | 0 mm | - | 304 W/m² | - |
| 1777809993 | 21.67° C | 71% | 1008 hPa | 0 mm | - | 271 W/m² | - |
| 1777809693 | 21.67° C | 68% | 1008.1 hPa | 0 mm | - | 285 W/m² | - |
| 1777809393 | 21.67° C | 67% | 1008.2 hPa | 0 mm | - | 306 W/m² | - |
| 1777809094 | 21.67° C | 67% | 1008.2 hPa | 0 mm | - | 334 W/m² | - |
| 1777808793 | 21.11° C | 68% | 1008.4 hPa | 0 mm | - | 308 W/m² | - |
| 1777808493 | 21.67° C | 67% | 1008.3 hPa | 0 mm | - | 253 W/m² | - |
| 1777808194 | 21.67° C | 67% | 1008.4 hPa | 0 mm | - | 327 W/m² | - |
| 1777807893 | 21.67° C | 66% | 1008.4 hPa | 0 mm | - | 308 W/m² | - |
| 1777807593 | 21.67° C | 68% | 1008.5 hPa | 0 mm | - | 271 W/m² | - |
| 1777807293 | 21.67° C | 65% | 1008.4 hPa | 0 mm | - | 295 W/m² | - |
| 1777806994 | 21.67° C | 67% | 1008.5 hPa | 0 mm | - | 346 W/m² | - |
| 1777806692 | 21.67° C | 65% | 1008.6 hPa | 0 mm | - | 401 W/m² | - |
| 1777806394 | 21.67° C | 65% | 1008.5 hPa | 0 mm | - | 334 W/m² | - |
| 1777806093 | 21.67° C | 66% | 1008.6 hPa | 0 mm | - | 561 W/m² | - |
| 1777805790 | 21.67° C | 67% | 1008.6 hPa | 0 mm | - | 404 W/m² | - |
| 1777805490 | 21.67° C | 66% | 1008.6 hPa | 0 mm | - | 399 W/m² | - |
| 1777805190 | 21.67° C | 67% | 1008.7 hPa | 0 mm | - | 531 W/m² | - |
| 1777804890 | 21.67° C | 68% | 1008.7 hPa | 0 mm | - | 610 W/m² | - |
* Rain latest hour (hover to see other rain measurements)
** Current wind speed in m/s (hover to see current wind gust speed)